GW2918 Weather Reports


time (UTC)temp
C
wind
direction
speed
KPH
gust
KPH
rain 1hr
cm
rain 24hr
cm
rain mn
cm
humidity
%
barometer
mb
20260504214735 20 183 6.4 16.1 0.00 0.00 0.00 44 1007.3
20260504213735 20 201 9.7 20.9 0.00 0.00 0.00 43 1007.2
20260504212734 20 173 6.4 22.5 0.00 0.00 0.00 43 1007.3
20260504211734 19 173 6.4 22.5 0.00 0.00 0.00 43 1007.3
20260504210734 19 197 6.4 17.7 0.00 0.00 0.00 44 1007.5
20260504205733 20 162 9.7 11.3 0.00 0.00 0.00 44 1007.4
20260504204729 19 190 12.9 20.9 0.00 0.00 0.00 45 1007.6
20260504203726 18 174 6.4 25.7 0.00 0.00 0.00 46 1007.7
20260504202723 18 215 17.7 24.1 0.00 0.00 0.00 46 1008.1
20260504201723 18 164 4.8 25.7 0.00 0.00 0.00 47 1008.0
20260504200718 18 163 6.4 17.7 0.00 0.00 0.00 47 1008.3
20260504195716 19 214 14.5 19.3 0.00 0.00 0.00 45 1008.4
20260504194715 18 232 9.7 38.6 0.00 0.00 0.00 46 1008.6
20260504193714 18 207 20.9 30.6 0.00 0.00 0.00 44 1008.7
20260504192710 18 187 3.2 25.7 0.00 0.00 0.00 46 1008.6
20260504191706 20 205 6.4 20.9 0.00 0.00 0.00 43 1008.8
20260504190703 18 204 12.9 20.9 0.00 0.00 0.00 47 1009.0
20260504185702 18 206 17.7 22.5 0.00 0.00 0.00 47 1009.0
20260504184701 18 139 20.9 29.0 0.00 0.00 0.00 48 1008.9
20260504183659 18 208 4.8 25.7 0.00 0.00 0.00 47 1009.0
20260504182654 18 187 4.8 20.9 0.00 0.00 0.00 47 1009.1
20260504181649 18 233 16.1 29.0 0.00 0.00 0.00 44 1009.2
20260504180645 20 175 9.7 11.3 0.00 0.00 0.00 43 1009.4
20260504175640 17 206 20.9 25.7 0.00 0.00 0.00 46 1009.3
20260504174635 17 152 14.5 24.1 0.00 0.00 0.00 46 1009.4
20260504173634 18 198 8.0 27.4 0.00 0.00 0.00 51 1009.7
20260504172634 17 203 11.3 19.3 0.00 0.00 0.00 45 1009.8
20260504171633 17 305 9.7 20.9 0.00 0.00 0.00 48 1009.6
20260504170632 17 195 4.8 25.7 0.00 0.00 0.00 52 1009.9
20260504150612 14 199 14.5 30.6 0.00 0.00 0.00 50 1011.1
20260504140603 12 230 16.1 27.4 0.00 0.00 0.00 51 1011.3
20260504130550 11 184 16.1 19.3 0.00 0.00 0.00 52 1011.7
20260504110531 7 192 8.0 19.3 0.00 0.00 0.00 59 1011.8
20260504100516 6 202 3.2 6.4 0.00 0.00 0.00 62 1011.8
20260504081454 6 88 3.2 4.8 0.00 0.00 0.00 64 1011.9
20260504080452 6 88 4.8 4.8 0.00 0.00 0.00 64 1012.0
20260504050421 7 143 4.8 11.3 0.00 0.00 0.00 60 1012.1
20260504045419 7 217 3.2 8.0 0.00 0.00 0.00 60 1012.1
20260504044419 7 128 3.2 4.8 0.00 0.00 0.00 59 1012.4
20260504043419 7 238 3.2 6.4 0.00 0.00 0.00 58 1012.3
20260504042419 7 213 3.2 8.0 0.00 0.00 0.00 59 1012.1
20260504041418 7 173 1.6 3.2 0.00 0.00 0.00 59 1012.1
20260504040412 7 202 9.7 11.3 0.00 0.00 0.00 57 1012.3
20260504035411 7 193 0.0 6.4 0.00 0.00 0.00 57 1012.3
20260504034411 7 146 3.2 6.4 0.00 0.00 0.00 57 1012.0
20260504033406 7 111 3.2 9.7 0.00 0.00 0.00 56 1012.1
20260504032405 7 188 3.2 6.4 0.00 0.00 0.00 56 1012.3
20260504031405 7 150 3.2 4.8 0.00 0.00 0.00 56 1012.1
20260504030404 7 13 1.6 4.8 0.00 0.00 0.00 56 1012.4
20260504025403 7 113 3.2 4.8 0.00 0.00 0.00 56 1012.1
20260504024402 7 121 3.2 4.8 0.00 0.00 0.00 56 1012.3
20260504023401 7 150 0.0 3.2 0.00 0.00 0.00 55 1012.4
20260504022400 7 248 3.2 3.2 0.00 0.00 0.00 54 1012.3
20260504021359 7 58 1.6 4.8 0.00 0.00 0.00 55 1012.1
20260504020359 7 107 3.2 4.8 0.00 0.00 0.00 55 1012.4
20260504015357 7 80 3.2 4.8 0.00 0.00 0.00 55 1012.1
20260504014355 7 119 3.2 4.8 0.00 0.00 0.00 54 1012.5
20260504013350 8 134 3.2 4.8 0.00 0.00 0.00 53 1012.1
20260504012350 8 134 3.2 4.8 0.00 0.00 0.00 52 1012.0
20260504011350 8 38 0.0 4.8 0.00 0.00 0.00 53 1011.9
20260504010348 8 180 3.2 4.8 0.00 0.00 0.00 53 1011.8
20260504005347 8 115 1.6 3.2 0.00 0.00 0.00 53 1011.6
20260504004342 8 165 0.0 4.8 0.00 0.00 0.00 50 1011.7
20260504003341 8 111 3.2 3.2 0.00 0.00 0.00 49 1011.6
20260504002340 8 113 1.6 4.8 0.00 0.00 0.00 50 1011.5
20260504001340 9 254 1.6 6.4 0.00 0.00 0.00 51 1011.4
20260504000340 10 334 0.0 3.2 0.00 0.00 0.00 49 1011.4
20260503235335 10 156 3.2 9.7 0.00 0.00 0.00 46 1011.2
20260503234330 10 217 3.2 9.7 0.00 0.00 0.00 46 1011.3
20260503233329 11 256 11.3 12.9 0.00 0.00 0.00 44 1011.2
20260503232329 11 217 12.9 16.1 0.00 0.00 0.00 43 1011.1
20260503231329 11 233 3.2 6.4 0.00 0.00 0.00 45 1011.1
20260503230328 11 235 3.2 9.7 0.00 0.00 0.00 44 1011.3
20260503225328 12 347 6.4 11.3 0.00 0.00 0.00 42 1011.0
20260503224327 11 60 6.4 8.0 0.00 0.00 0.00 45 1011.0
20260503223322 11 248 4.8 6.4 0.00 0.00 0.00 47 1011.1
20260503222322 11 331 3.2 8.0 0.00 0.00 0.00 47 1011.1
20260503221319 11 19 6.4 6.4 0.00 0.00 0.00 45 1011.2
20260503220317 12 273 8.0 11.3 0.00 0.00 0.00 44 1011.0